date,batt_volt,AirTemp_C,Solar_kW,RH,Manual_BP,StationID,WS_ms,PTemp,WS_15min_max,Prog_Sig,Solar_Raw,Bar_mbar,Solar_MJ,Max_WS_2min,Pressure_Raw,Rain_mm,WD_15min_ave,Max_AirTemp_1min,WindDir,WS_15min_med,WS_15min_ave,Elevation_Correction
2019-01-01T00:14:10Z,13.41562,-5.195358,0.0,81.29006,0,1156,2.1952,-3.084103,2.7048,43690,0.0,1026.966,0.0,2.313,1025.165,0.0,102.706131003,-5.026,105.1857,1.96,1.97055384615,1.80078
2019-01-01T00:29:10Z,13.40461,-5.127338,0.0,82.9202,0,1156,1.96,-2.955326,2.3912,43690,0.0,1026.966,0.0,2.136,1025.165,0.0,104.171381428,-5.059,115.5769,2.2344,2.1952,1.80078
2019-01-01T00:44:10Z,13.39908,-4.414265,0.0,82.75041,0,1156,3.2144,-2.611919,3.3124,43690,0.0,1026.966,0.0,3.312,1025.165,0.0,98.9200591921,-4.414,99.18301,1.8228,1.81050650473,1.80078
2019-01-01T00:59:09Z,13.37494,-3.706673,0.0,80.70088,0,1156,0.9015999,-2.24818,3.038,43690,0.0,1026.966,0.0,2.254,1025.165,0.0,99.8448221058,-3.536,80.12507,1.5484,1.7955455574,1.80078
2019-01-01T01:14:09Z,13.37341,-4.592583,0.0,82.69652,0,1156,2.352,-2.227844,2.842,43690,0.0,1026.175,0.0,2.372,1024.374,0.0,97.4186222575,-4.525,92.43441,1.568,1.5888757355,1.80078
2019-01-01T01:29:08Z,13.37338,-2.455627,0.0,78.95859,0,1156,0.8231999,-1.992886,3.1948,43690,0.0,1026.175,0.0,1.764,1024.374,0.0,95.2759394349,-2.285,115.4472,1.8816,1.77548165562,1.80078
2019-01-01T01:44:13Z,13.36183,-2.185894,0.0,77.12177,0,1156,1.5876,-1.651737,3.332,43690,0.0,1026.175,0.0,2.372,1024.374,0.0,104.779893531,-2.186,110.2841,2.107,2.06191999882,1.80078
2019-01-01T01:59:12Z,13.33926,-2.118111,0.0,76.61239,0,1156,2.2736,-1.138886,2.744,43690,0.0,1026.175,0.0,2.744,1024.374,0.0,106.603671615,-2.084,91.55774,2.0384,2.03236923077,1.80078
2019-01-01T02:14:10Z,13.33373,-1.846554,0.0,73.8629,0,1156,2.156,-0.6057053,3.1948,43690,0.0,1025.997,0.0,2.45,1024.196,0.0,97.6461365686,-1.745,104.4515,2.3128,2.28531360947,1.80078
2019-01-01T02:29:09Z,13.31714,-2.016277,0.0,75.0849,0,1156,1.9012,-0.1809654,2.4696,43690,0.0,1025.997,0.0,1.823,1024.196,0.0,122.159088506,-2.05,129.2991,1.4112,1.47197159112,1.80078
2019-01-01T02:44:14Z,13.31126,-1.779705,0.0,71.72245,0,1156,2.3128,0.05399704,3.6848,43690,0.0,1025.997,0.0,2.822,1024.196,0.0,110.487563057,-1.61,107.8226,2.499,2.44965411765,1.80078
2019-01-01T02:59:13Z,13.30413,-1.614655,0.0,70.86526,0,1156,2.4696,0.3296242,3.8612,43690,0.0,1025.997,0.0,3.077,1024.196,0.0,111.375058772,-1.411,106.5806,2.7244,2.72985088757,1.80078
2019-01-01T03:14:12Z,13.29278,-1.411816,0.0,72.69648,0,1156,2.5284,0.5849228,4.0376,43690,0.0,1024.289,0.0,4.038,1022.489,0.0,116.022747941,-1.378,92.16874,2.45,2.31384378462,1.80078
2019-01-01T03:29:15Z,13.28599,-1.176682,0.0,71.57201,0,1156,2.4304,0.8402176,3.3124,43690,0.0,1024.289,0.0,3.038,1022.489,0.0,112.754008717,-1.075,98.78905,2.3716,2.36087764706,1.80078
2019-01-01T03:44:14Z,13.27952,-1.28249,0.0,71.53069,0,1156,2.9792,1.095512,3.8024,43690,0.0,1024.289,0.0,3.802,1022.489,0.0,93.671381885,-1.215,105.9102,2.6852,2.65319053254,1.80078
2019-01-01T03:59:13Z,13.27947,-1.520168,0.0,71.39468,0,1156,3.8024,1.224289,4.4884,43690,0.0,1024.289,0.0,4.312,1022.489,0.0,104.022560948,-1.418,110.6801,3.2732,3.33629112426,1.80078
2019-01-01T04:14:12Z,13.27947,-1.384438,0.0,72.75199,0,1156,3.6456,1.287548,4.4492,43690,0.0,1023.538,0.0,4.096,1021.738,0.0,114.358162845,-1.249,132.3631,3.1164,3.16047100592,1.80078
2019-01-01T04:29:16Z,13.26841,-1.927364,0.0,76.04347,0,1156,4.704,1.350807,5.8212,43690,0.0,1023.538,0.0,5.821,1021.738,0.0,106.64567903,-1.826,102.7537,3.626,3.68918117647,1.80078
2019-01-01T04:44:15Z,13.27394,-1.791634,0.0,76.95966,0,1156,3.1948,1.30788,6.0956,43690,0.0,1023.538,0.0,4.939,1021.738,0.0,104.962041799,-1.69,63.00139,3.8416,3.82513136095,1.80078
2019-01-01T04:59:14Z,13.27394,-1.655899,0.0,77.33292,0,1156,3.822,1.30788,5.7232,43690,0.0,1023.538,0.0,5.312,1021.738,0.0,109.395120696,-1.486,94.20093,4.018,4.03156923077,1.80078
2019-01-01T05:14:17Z,13.27394,-1.757698,0.0,77.77405,0,1156,4.9,1.350807,6.2132,43690,0.0,1022.235,0.0,5.841,1020.435,0.0,104.796254494,-1.724,101.525,3.92,3.97960705882,1.80078
2019-01-01T05:29:16Z,13.27947,-1.825565,0.0,78.41877,0,1156,6.4092,1.350807,6.8992,43690,0.0,1022.235,0.0,6.37,1020.435,0.0,104.465561568,-1.656,110.4632,4.6648,4.60982721893,1.80078
2019-01-01T05:44:15Z,13.27394,-1.757698,0.0,78.72417,0,1156,5.0372,1.350807,6.958,43690,0.0,1022.235,0.0,5.9,1020.435,0.0,108.608761884,-1.622,104.2715,4.7236,4.6179455503,1.80078
2019-01-01T05:59:14Z,13.27394,-1.893429,0.0,78.48664,0,1156,5.1744,1.373402,7.0364,43690,0.0,1022.235,0.0,5.998,1020.435,0.0,109.301868023,-1.893,108.1745,4.2336,4.2550556213,1.80078
2019-01-01T06:14:13Z,13.27947,-1.927364,0.0,80.9298,0,1156,4.4492,1.350807,7.996799,43690,0.0,1019.955,0.0,6.096,1018.154,0.0,107.853371839,-1.792,96.29696,4.998,4.88225560355,1.80078
2019-01-01T06:29:18Z,13.27947,-1.588036,0.0,81.47273,0,1156,5.6252,1.330475,7.643999,43690,0.0,1019.955,0.0,6.37,1018.154,0.0,105.171195577,-1.52,111.4992,5.1156,5.13024234118,1.80078
2019-01-01T06:44:16Z,13.27394,-1.655899,0.0,81.74418,0,1156,4.1748,1.373402,7.310799,43690,0.0,1019.955,0.0,6.213,1018.154,0.0,107.750651407,-1.588,106.8253,5.2528,5.19585560947,1.80078
2019-01-01T06:59:15Z,13.26841,-0.9772454,0.0,81.40486,0,1156,1.96,1.436657,5.7624,43690,0.0,1019.955,0.0,3.175,1018.154,0.0,96.9883521042,-0.9770001,61.0981,3.3418,3.34618117588,1.80078
2019-01-01T07:14:17Z,13.26841,-0.6379166,0.0,81.1334,0,1156,0.8624,1.565437,2.5872,43690,0.0,1018.978,0.0,1.294,1017.177,0.0,52.295849673,-0.6720001,35.17477,0.8035999,0.843733325,1.80078
2019-01-01T07:29:15Z,13.25736,-0.4003868,0.0,81.337,0,1156,1.0976,1.777805,3.43,43690,0.0,1018.978,0.0,2.176,1017.177,0.0,54.4018777346,-0.163,20.0448,0.9799999,1.09875975266,1.80078
2019-01-01T07:44:19Z,13.25184,-0.06105804,0.0,81.4388,0,1156,4.4296,2.010509,6.781599,43690,0.0,1018.978,0.0,7.154,1017.177,0.0,231.886597838,0.007,253.162,2.1854,2.45103763824,1.80078
2019-01-01T07:59:17Z,13.25147,0.07431412,0.0,81.30233,0,1156,9.329599,2.225136,9.133599,43690,0.0,1018.978,0.0,8.189999,1017.177,0.0,237.920335909,0.108,237.7648,4.3316,4.39840228876,1.80078
2019-01-01T08:14:20Z,13.24415,0.03492355,0.0,80.40913,0,1156,4.6256,2.394581,10.7212,43690,0.0,1017.182,0.0,10.72,1015.382,0.0,235.594593134,0.07,236.1426,7.4382,7.31667979412,1.80078
2019-01-01T08:29:18Z,13.24192,-0.1406212,0.0,80.60075,0,1156,6.664,2.523357,11.5052,43690,0.0,1017.182,0.0,8.7,1015.382,0.0,235.919706044,0.063,202.2679,7.0364,6.77707681657,1.80078
2019-01-01T08:44:17Z,13.24222,0.09632874,0.0,80.87111,0,1156,5.8408,2.629543,12.8968,43690,0.0,1017.182,0.0,11.05,1015.382,0.0,235.495685036,0.13,272.521,7.996799,7.83547677515,1.80078
2019-01-01T08:59:20Z,13.24196,-0.3453064,0.0,82.46413,0,1156,9.898,2.67247,12.74,43690,0.0,1017.182,0.0,11.25,1015.382,0.0,235.390190857,-0.108,254.1642,7.938,8.16420692941,1.80078
2019-01-01T09:14:18Z,13.24189,-0.4477348,0.0,85.07468,0,1156,3.822,2.609211,12.5636,43690,0.0,1015.471,0.0,10.37,1013.671,0.0,235.228689889,-0.346,218.3227,7.996799,7.60178446746,1.80078
2019-01-01T09:29:17Z,13.24183,-0.8196907,0.0,87.31612,0,1156,1.274,2.566284,9.6824,43690,0.0,1015.471,0.0,7.076,1013.671,0.0,241.6259417,-0.6850001,354.4569,4.0964,4.19927094438,1.80078
2019-01-01T09:44:21Z,13.24772,-1.260086,0.0,88.64045,0,1156,0.3332,2.480434,5.782,43690,0.0,1015.471,0.0,2.352,1013.671,0.0,221.881044722,-1.091,28.61326,1.617,1.80838822706,1.80078
2019-01-01T09:59:19Z,13.24876,-1.22448,0.0,89.52634,0,1156,1.1172,2.394581,3.3124,43690,0.0,1015.471,0.0,2.47,1013.671,0.0,89.9728685541,-1.224,51.35195,1.1564,1.26889703491,1.80078
2019-01-01T10:14:20Z,13.25457,-1.187363,0.0,90.17831,0,1156,3.528,2.351654,8.3692,43690,0.0,1014.045,0.0,4.038,1012.244,0.0,236.422161186,-1.188,243.2192,1.715,1.92186264518,1.80078
2019-01-01T10:29:23Z,13.25633,-1.353367,0.0,90.25466,0,1156,1.4112,2.268063,5.1352,43690,0.0,1014.045,0.0,1.548,1012.244,0.0,298.873283071,-1.218,100.4334,1.127,1.30596665893,1.80078
2019-01-01T10:44:21Z,13.25678,-1.421196,0.0,90.42437,0,1156,2.1952,2.245472,3.3124,43690,0.0,1014.045,0.0,2.313,1012.244,0.0,26.8969881434,-1.318,22.45239,1.2544,1.30902484379,1.80078
2019-01-01T10:59:19Z,13.25703,-1.352539,0.0,90.39231,0,1156,1.9404,2.245472,5.586,43690,0.0,1014.045,0.0,5.449,1012.244,0.0,71.143728859,-1.216,353.4156,2.4304,2.62083313314,1.80078
2019-01-01T11:14:22Z,13.25178,-1.249931,0.0,90.22455,0,1156,3.8416,2.245472,7.35,43690,0.0,1011.953,0.0,7.35,1010.152,0.0,82.8867453172,-1.182,88.00642,4.4198,4.30865647059,1.80078
2019-01-01T11:29:20Z,13.26246,-1.113121,0.0,89.98954,0,1156,4.802,2.225136,7.016799,43690,0.0,1011.953,0.0,6.096,1010.152,0.0,85.9072291954,-1.045,90.94812,4.7824,4.6920544142,1.80078
2019-01-01T11:44:24Z,13.25735,-1.148155,0.0,90.19058,0,1156,2.8028,2.245472,6.4484,43690,0.0,1011.953,0.0,5.037,1010.152,0.0,83.1222287146,-1.08,126.0951,3.5966,3.54898352941,1.80078
2019-01-01T11:59:22Z,13.25141,-1.317383,0.0004826612,90.76842,0,1156,4.018,2.268063,7.7812,43690,0.03378628,1011.953,2.413306e-06,6.821,1010.152,0.0,87.1862059537,-1.114,118.0498,5.2332,5.06143902959,1.80078
2019-01-01T12:14:21Z,13.25137,-1.047058,0.001930645,91.07116,0,1156,7.663599,2.288395,7.761599,43690,0.1351451,1008.789,9.653223e-06,6.978,1006.989,0.0,86.5039753342,-1.047,84.12613,5.1548,5.09878338462,1.80078
2019-01-01T12:29:20Z,13.25104,-1.049011,0.002895967,91.67733,0,1156,6.4484,2.310989,7.9184,43690,0.2027177,1008.789,1.447983e-05,6.978,1006.989,0.0,89.7723583334,-0.947,72.7033,5.6644,5.60594785207,1.80078
2019-01-01T12:44:20Z,13.24494,-1.048206,0.005791934,92.08638,0,1156,6.879599,2.331322,8.1536,43690,0.4054354,1008.789,2.895967e-05,7.095,1006.989,0.0,90.4061713593,-0.9120001,98.81879,5.8408,5.79870056213,1.80078
2019-01-01T12:59:20Z,13.2444,-0.8794289,0.006757257,92.66114,0,1156,4.9784,2.374249,8.427999,43690,0.473008,1008.789,3.378628e-05,8.429999,1006.989,0.0,91.6538486864,-0.8800001,85.71171,6.0368,5.95550046154,1.80078
2019-01-01T13:14:21Z,13.24445,-0.813881,0.01206653,93.09673,0,1156,6.5072,2.394581,9.309999,43690,0.844657,1006.711,6.033265e-05,9.309999,1004.91,0.0,93.9142593746,-0.712,101.605,6.37,6.39273127219,1.80078
2019-01-01T13:29:21Z,13.24361,-0.6130218,0.01399717,93.09033,0,1156,6.7032,2.460098,9.4472,43690,0.9798022,1006.711,6.998587e-05,9.45,1004.91,0.0,90.2468397795,-0.58,126.4556,7.448,7.39708615385,1.80078
2019-01-01T13:44:21Z,13.2432,-0.6491737,0.01882379,92.88152,0,1156,6.0564,2.480434,9.3884,43690,1.317665,1006.711,9.411893e-05,9.389999,1004.91,0.0,99.0872256845,-0.649,132.0604,6.389599,6.22711707101,1.80078
2019-01-01T13:59:26Z,13.24325,-0.5811577,0.01641048,93.1533,0,1156,3.5476,2.543694,8.5652,43690,1.148734,1006.711,8.20524e-05,8.17,1004.91,0.0,113.42233225,-0.513,121.1502,4.8804,4.97090587647,1.80078
2019-01-01T14:14:25Z,13.24201,-0.7519417,0.03571692,93.38798,0,1156,5.9192,2.586617,10.5056,43690,2.500185,1001.729,0.0001785846,8.53,999.9282,0.0,114.275824578,-0.582,114.2583,5.3704,5.52928752663,1.80078
2019-01-01T14:29:24Z,13.23658,-0.6506844,0.03523426,93.65815,0,1156,8.5652,2.629543,8.7808,43690,2.466398,1001.729,0.0001761713,8.019999,999.9282,0.0,116.528823243,-0.617,104.334,5.9192,5.91398101775,1.80078
2019-01-01T14:44:23Z,13.24182,-0.5832252,0.0347516,93.759,0,1156,6.5464,2.652134,10.6624,43690,2.432612,1001.729,0.000173758,8.55,999.9282,0.0,114.824092456,-0.481,107.9456,6.781599,6.77881646746,1.80078
2019-01-01T14:59:22Z,13.24189,-0.3798142,0.03764757,93.96225,0,1156,7.5852,2.715393,10.878,43690,2.63533,1001.729,0.0001882379,8.599999,999.9282,0.0,114.93467894,-0.346,119.4335,7.016799,6.88690633728,1.80078
2019-01-01T15:14:23Z,13.23076,-0.2103004,0.0410262,94.09772,0,1156,5.2724,2.821579,9.525599,43690,2.871834,998.1247,0.000205131,8.47,996.324,0.0,116.991260881,-0.075,97.82974,6.3112,6.23465547337,1.80078
2019-01-01T15:29:23Z,13.23076,0.02720261,0.03475118,94.40314,0,1156,3.528,2.907433,9.4276,43690,2.432582,998.1247,0.0001737559,8.62,996.324,0.0,119.999420622,0.061,94.38583,5.684,5.79568517751,1.80078
2019-01-01T15:44:24Z,13.23076,0.1289139,0.02171947,94.74222,0,1156,4.8608,2.970692,9.1924,43690,1.520358,998.1247,0.0001085973,8.13,996.324,0.0,120.476822954,0.09500001,117.4342,5.39,5.4327952426,1.80078
2019-01-01T15:59:24Z,13.21972,0.2645988,0.03330345,95.04751,0,1156,4.8608,3.056541,7.3304,43690,2.331241,998.1247,0.0001665172,6.919,996.324,0.0,119.389304007,0.4,142.5781,4.6256,4.62420827219,1.80078
2019-01-01T16:14:24Z,13.22524,0.6038094,0.01978909,95.25105,0,1156,5.7036,3.099468,6.6052,43690,1.385237,993.9718,9.894547e-05,5.645,992.1711,0.0,123.375941595,0.604,115.4593,3.8612,3.80321183432,1.80078
2019-01-01T16:29:25Z,13.22524,0.705574,0.01882377,95.28497,0,1156,4.3512,3.122059,7.938,43690,1.317664,993.9718,9.411887e-05,4.528,992.1711,0.0,116.49388549,0.8070001,132.1015,3.3712,3.27749111716,1.80078
2019-01-01T16:44:24Z,13.21972,0.6716538,0.03475158,95.38674,0,1156,1.2544,3.20565,5.6644,43690,2.432611,993.9718,0.0001737579,3.744,992.1711,0.0,116.155082501,0.7730001,173.6225,2.4696,2.58058934852,1.80078
2019-01-01T16:59:25Z,13.21972,0.6377334,0.03813021,95.38674,0,1156,1.7052,3.271172,6.6444,43690,2.669115,993.9718,0.000190651,6.488,992.1711,0.0,122.808334782,0.841,148.4064,3.7044,3.63608993432,1.80078
2019-01-01T17:14:25Z,13.21972,0.705574,0.055506,95.4885,0,1156,7.056,3.314095,7.9576,43690,3.88542,991.9366,0.00027753,7.958,990.1358,0.1,118.165602525,0.841,148.2138,5.1548,5.16373015385,1.80078
2019-01-01T17:29:26Z,13.21419,0.6716538,0.02654635,95.42066,0,1156,5.6252,3.334431,8.9768,43690,1.858244,991.9366,0.0001327317,9.349999,990.1358,0.0,114.748391512,0.8070001,97.92607,5.586,5.74477154438,1.80078
2019-01-01T17:44:26Z,13.21972,0.841259,0.04826604,95.52242,0,1156,7.7812,3.357021,10.9172,43690,3.378623,991.9366,0.0002413302,10.17,990.1358,0.0,116.83575692,0.8750001,116.4709,5.9976,6.32117389349,1.80078
2019-01-01T17:59:27Z,13.21419,0.6377334,0.03764687,95.4885,0,1156,5.0568,3.42028,10.1528,43690,2.635281,991.9366,0.0001882344,8.9,990.1358,0.0,119.253557626,0.6720001,96.9627,6.37,6.33938215385,1.80078
2019-01-01T18:14:27Z,13.20867,0.841259,0.06708966,95.4885,0,1156,5.978,3.485798,9.8,43690,4.696276,989.9013,0.0003354483,8.47,988.1006,0.0,111.746108789,0.8070001,125.8155,5.8996,6.01951943195,1.80078
2019-01-01T18:29:29Z,13.20867,0.8751831,0.05743411,95.52242,0,1156,3.9984,3.591984,9.408,43690,4.020388,989.9013,0.0002871705,7.977,988.1006,0.0,114.137280398,0.943,101.2979,5.2724,5.39753842604,1.80078
2019-01-01T18:44:30Z,13.20867,0.976944,0.05019346,95.55634,0,1156,4.312,3.677837,9.113999,43690,3.513542,989.9013,0.0002509673,6.684,988.1006,0.0,114.48137537,1.045,100.6235,5.5076,5.6189372071,1.80078
2019-01-01T18:59:30Z,13.20867,1.044788,0.04874095,95.59026,0,1156,4.7628,3.763687,9.3492,43690,3.411867,989.9013,0.0002437048,9.189999,988.1006,0.0,109.654228761,1.147,90.53225,6.076,6.06521412426,1.80078
2019-01-01T19:14:30Z,13.20867,1.078709,0.06466576,95.55634,0,1156,7.4284,3.869873,8.8004,43690,4.526604,989.4129,0.0003233288,7.134,987.6121,0.0,107.568047354,1.18,108.8603,6.174,6.13781530769,1.80078
2019-01-01T19:29:31Z,13.20314,1.180473,0.1042376,95.59026,0,1156,5.586,3.99865,8.055599,43690,7.29663,989.4129,0.0005211878,7.389001,987.6121,0.0,104.739306025,1.282,104.0916,6.5464,6.50847565089,1.80078
2019-01-01T19:44:31Z,13.19762,1.248318,0.04536249,95.59026,0,1156,6.762,4.127426,8.5652,43690,3.175374,989.4129,0.0002268124,7.938,987.6121,0.0,103.031239696,1.316,107.9451,7.016799,6.96159510059,1.80078
2019-01-01T19:59:31Z,13.19762,1.282238,0.03474552,95.62418,0,1156,3.0184,4.21328,7.565599,43690,2.432186,989.4129,0.0001737276,4.626,987.6121,0.0,101.552163349,1.35,119.5055,4.8804,4.84085205325,1.80078
2019-01-01T20:14:31Z,13.19762,1.316158,0.009168233,95.69202,0,1156,2.6264,4.29913,5.0568,43690,0.6417763,989.9013,4.584116e-05,3.116,988.1006,0.0,110.987522458,1.452,106.2592,2.45,2.64159289941,1.80078
2019-01-01T20:29:30Z,13.19762,1.384003,0.004825175,95.6581,0,1156,2.7244,4.342056,3.8612,43690,0.3377622,989.9013,2.412587e-05,3.508,988.1006,0.0,26.2655408539,1.486,326.9662,1.6268,1.60035739408,1.80078
2019-01-01T20:44:30Z,13.19762,1.350079,0.002894998,95.6581,0,1156,0.9604,4.384979,3.43,43690,0.2026499,989.9013,1.447499e-05,2.234,988.1006,0.0,311.422073302,1.35,300.4014,1.9012,1.88786272012,1.80078
2019-01-01T20:59:30Z,13.19762,1.417923,0.0009649961,95.6581,0,1156,4.4884,4.407574,5.488,43690,0.06754973,989.9013,4.82498e-06,5.018,988.1006,0.0,309.194879211,1.452,316.7545,3.038,3.06096331243,1.80078
2019-01-01T21:14:30Z,13.21419,1.112629,0.0,95.62418,0,1156,2.5284,4.342056,6.468,43690,0.0,992.1808,0.0,5.645,990.38,0.0,306.741621401,1.248,292.7667,4.0572,4.04247100592,1.80078
2019-01-01T21:29:30Z,13.21972,0.9430237,0.0,95.59026,0,1156,2.646,4.170353,6.5464,43690,0.0,992.1808,0.0,5.155,990.38,0.0,305.455244176,1.045,303.3156,3.9984,4.11217278107,1.80078
2019-01-01T21:44:31Z,13.21972,1.248318,0.0,95.62418,0,1156,8.0164,3.869873,8.3888,43690,0.0,992.1808,0.0,8.389999,990.38,0.0,295.009364411,1.282,282.9885,4.9588,4.99973960355,1.80078
2019-01-01T21:59:32Z,13.21972,0.8751831,0.0,95.28497,0,1156,5.782,3.612316,9.4668,43690,0.0,992.1808,0.0,8.7,990.38,0.0,295.715921299,1.011,284.0001,6.468,6.48910753846,1.80078
2019-01-01T22:14:32Z,13.23076,0.6038094,0.0,94.87791,0,1156,3.0184,3.314095,10.486,43690,0.0,994.5418,0.0,6.194,992.741,0.0,286.777746321,0.638,307.2172,6.4288,6.28093004734,1.80078
2019-01-01T22:29:32Z,13.24181,0.2985191,0.0,94.33517,0,1156,7.663599,2.970692,10.78,43690,0.0,994.5418,0.0,8.51,992.741,0.0,304.368439674,0.434,299.0526,5.2528,5.29663900592,1.80078
2019-01-01T22:44:32Z,13.24181,0.06106949,0.0,93.5889,0,1156,1.47,2.67247,7.84,43690,0.0,994.5418,0.0,3.763,992.741,0.0,303.409574875,0.197,48.28868,3.5868,3.70903902249,1.80078
2019-01-01T22:59:33Z,13.25331,-0.04047775,0.0,92.43607,0,1156,3.0184,2.374249,7.7224,43690,0.0,994.5418,0.0,4.606,992.741,0.0,308.26071944,0.027,326.9438,2.842,3.07615621183,1.80078
2019-01-01T23:14:33Z,13.24938,-0.4072914,0.0,90.51702,0,1156,3.2144,2.182213,10.878,43690,0.0,996.5797,0.0,7.232,994.779,0.0,317.490167016,-0.238,321.4799,4.508,4.58860350888,1.80078
2019-01-01T23:29:33Z,13.26823,-0.470192,0.0,88.11924,0,1156,4.018,2.010509,9.505999,43690,0.0,996.5797,0.0,6.429,994.779,0.0,318.569875501,-0.369,313.1847,4.7236,4.85013014793,1.80078
2019-01-01T23:44:34Z,13.26841,-0.4683647,0.0,85.13723,0,1156,6.2328,1.798138,9.5452,43690,0.0,996.5797,0.0,7.232,994.779,0.0,316.13620468,-0.367,304.9837,4.8608,5.08312659172,1.80078
2019-01-01T23:59:33Z,13.26841,-0.5022163,0.0,83.6783,0,1156,5.9976,1.649029,9.133599,43690,0.0,996.5797,0.0,6.527,994.779,0.0,317.853672322,-0.57,320.3311,4.214,4.42878814201,1.80078
2019-01-02T00:14:35Z,13.26841,-0.6718788,0.0,82.28706,0,1156,4.9588,1.499916,7.9772,43690,0.0,999.1064,0.0,6.468,997.3056,0,318.020958284,-0.57,293.1068,4.2532,4.24013332727,1.80078
2019-01-02T00:29:35Z,13.27946,-0.6040115,0.0,80.99761,0,1156,4.3708,1.373402,8.134,43690,0.0,999.1064,0.0,7.997,997.3056,0,321.006621517,-0.57,311.6338,4.6452,4.70504377515,1.80078
2019-01-02T00:44:35Z,13.27946,-0.6379471,0.0,79.60636,0,1156,3.2536,1.267216,10.2116,43690,0.0,999.1064,0.0,10.21,997.3056,0,318.00430022,-0.502,307.8513,5.292,5.24050642012,1.80078
2019-01-02T00:59:36Z,13.27393,-0.6040115,0.0,78.5205,0,1156,8.5064,1.201698,11.4268,43690,0.0,999.1064,0.0,7.585001,997.3056,0,316.383379229,-0.502,336.8102,5.8604,5.7775928284,1.80078
2019-01-02T01:14:36Z,13.27393,-0.6379471,0.0,78.58838,0,1156,4.6256,1.181362,9.1532,43690,0.0,1000.735,0.0,7.82,998.9343,0,317.606263256,-0.536,305.3939,4.6256,4.80687094083,1.80078
2019-01-02T01:29:36Z,13.27393,-0.5361481,0.0,77.40073,0,1156,3.9592,1.181362,10.1332,43690,0.0,1000.735,0.0,8.33,998.9343,0,311.820991951,-0.333,346.688,5.1548,5.34024607692,1.80078
2019-01-02T01:44:35Z,13.26841,-0.5700798,0.0,76.28094,0,1156,8.6044,1.201698,11.0152,43690,0.0,1000.735,0.0,7.703001,998.9343,0,312.178965565,-0.434,326.9324,5.782,5.92128746154,1.80078
2019-01-02T01:59:36Z,13.26841,-0.3664856,0.0,75.83982,0,1156,7.369599,1.373402,9.8588,43690,0.0,1000.735,0.0,7.507001,998.9343,0,309.70195977,-0.265,334.7865,4.998,5.02780586982,1.80078
2019-01-02T02:14:35Z,13.25735,-0.1628876,0.0,75.70409,0,1156,9.2708,1.777805,10.29,43690,0.0,1003.178,0.0,10.07,1001.378,0,307.690617847,-0.061,314.2598,5.586,5.71032656805,1.80078
2019-01-02T02:29:36Z,13.2463,-0.1968193,0.0,75.12722,0,1156,6.7424,2.139286,10.7408,43690,0.0,1003.178,0.0,8.15,1001.378,0,311.891361668,-0.129,317.7291,6.1544,6.01476443195,1.80078
2019-01-02T02:44:36Z,13.24001,-0.5711326,0.0,77.02542,0,1156,8.0164,2.331322,10.5448,43690,0.0,1003.178,0.0,9.15,1001.378,0,308.785604485,-0.47,319.8166,5.8996,5.86550288166,1.80078
2019-01-02T02:59:36Z,13.24373,-1.321842,0.0,74.77777,0,1156,6.9384,2.331322,12.4264,43690,0.0,1003.178,0.0,12.43,1001.378,0,316.508149365,-1.253,326.8399,6.6836,6.56252063905,1.80078
2019-01-02T03:14:37Z,13.25117,-1.726051,0.0,73.49413,0,1156,9.0552,2.182213,11.7012,43690,0.0,1004.25,0.0,6.978,1002.45,0,311.484604232,-1.659,326.3108,6.1348,6.24544130769,1.80078
2019-01-02T03:29:37Z,13.26838,-2.741882,0.0,70.07106,0,1156,8.937599,1.755215,12.9164,43690,0.0,1004.25,0.0,12.92,1002.45,0,326.118728752,-2.538,336.5202,4.7628,4.86126388166,1.80078
2019-01-02T03:44:37Z,13.29604,-3.148975,0.0,70.1391,0,1156,3.3712,1.032253,9.525599,43690,0.0,1004.25,0.0,6.292,1002.45,0,333.871968354,-3.149,304.1411,4.0768,4.52087330769,1.80078
2019-01-02T03:59:37Z,13.31343,-3.51868,0.0,71.74094,0,1156,2.8812,0.3522186,10.6624,43690,0.0,1004.25,0.0,8.47,1002.45,0,324.262358292,-3.418,292.1715,4.998,4.96169937811,1.80078
2019-01-02T04:14:42Z,13.32666,-3.818531,0.0,73.17753,0,1156,2.3912,-0.2012978,12.7792,43690,0.0,1004.293,0.0,10.0,1002.492,0,316.507851305,-3.65,324.1228,4.5178,4.79392935882,1.80078
2019-01-02T04:29:41Z,13.33368,-4.05304,0.0,71.28292,0,1156,5.6448,-0.6282959,12.3676,43690,0.0,1004.293,0.0,12.37,1002.492,0,312.548702768,-3.985,314.0766,5.4684,5.38037391065,1.80078
2019-01-02T04:44:38Z,13.34477,-4.32452,0.0,69.21247,0,1156,7.154,-0.9694442,14.9352,43690,0.0,1004.293,0.0,7.762001,1002.492,0,320.941274655,-4.155,325.9588,5.684,5.87237115569,1.80078
2019-01-02T04:59:42Z,13.35583,-4.49424,0.0,71.55462,0,1156,3.8808,-1.310589,9.074799,43690,0.0,1004.293,0.0,9.07,1002.492,0,321.641127586,-4.494,312.7036,4.1356,4.18771291176,1.80078
2019-01-02T05:14:40Z,13.36689,-5.071297,0.0,71.28307,0,1156,2.0972,-1.651737,7.1344,43690,0.0,1006.852,0.0,6.586,1005.051,0,327.670338198,-5.037,318.7046,2.9988,3.2385550284,1.80078
2019-01-02T05:29:39Z,13.37794,-5.81807,0.0,69.75558,0,1156,2.7048,-2.056145,8.3692,43690,0.0,1006.852,0.0,7.232,1005.051,0,324.921145583,-5.682,38.27154,3.7828,3.91385323018,1.80078
2019-01-02T05:44:43Z,13.40202,-6.45797,0.0,68.71363,0,1156,4.214,-2.505733,10.192,43690,0.0,1006.852,0.0,4.332,1005.051,0,326.786460416,-6.289,330.226,4.3316,4.70296229353,1.80078
2019-01-02T05:59:42Z,13.42574,-6.995403,0.0,67.50322,0,1156,5.6056,-3.06377,9.8784,43690,0.0,1006.852,0.0,8.9,1005.051,0,319.758195627,-6.894001,313.4319,4.7432,4.76987454438,1.80078
2019-01-02T06:14:41Z,13.44329,-7.300522,0.0,67.91169,0,1156,1.8424,-3.621803,9.1532,43690,0.0,1008.971,0.0,5.998,1007.171,0,319.819849992,-7.165001,252.9479,4.5668,4.75839287456,1.80078
2019-01-02T06:29:40Z,13.45438,-7.640072,0.0,67.74193,0,1156,2.0188,-4.096245,10.4664,43690,0.0,1008.971,0.0,5.684,1007.171,0,320.265028856,-7.572001,219.9915,4.018,4.03040946095,1.80078
2019-01-02T06:44:45Z,13.46771,-7.838776,0.0,67.78648,0,1156,2.9988,-4.527763,7.0756,43690,0.0,1008.971,0.0,6.742,1007.171,0,318.971233009,-7.772,327.9531,3.2536,3.30455999765,1.80078
2019-01-02T06:59:43Z,13.4865,-7.934994,0.0,69.49682,0,1156,6.37,-5.024799,7.9576,43690,0.0,1008.971,0.0,2.47,1007.171,0,301.827485501,-7.969,333.9679,2.352,2.64634792663,1.80078
2019-01-02T07:14:41Z,13.49767,-8.376362,0.0,67.66303,0,1156,3.1164,-5.417908,8.1732,43690,0.0,1010.778,0.0,4.724,1008.978,0,310.246971751,-8.24,312.3131,3.528,3.64989112426,1.80078